RH
7 7 8 9 10 11 14 16 18 20 23 28 30 31 32 32 31 30 33 35 33 31 33 35 34 37 41 45 46 43 40 40 42 42 42 42 41 40 38 35 34 28 23 22 21 20 21 21 22 23 23 24 24 25 27 29 31 27 25 29 29 23 25 32 33 30 29 32 34 32 32 34 34 33 33 33 35 38 41 42 43 41 38 37 37 36
7 7 6 8 9 10 14 17 20 20 22 27 29 30 32 31 29 27 28 34 34 31 32 34 34 36 39 40 41 42 40 39 41 40 39 40 41 40 39 37 35 32 30 27 23 21 21 21 22 22 23 23 24 25 26 28 30 28 24 26 28 25 23 27 31 29 29 33 35 34 34 35 38 39 38 37 39 39 40 42 40 37 36 34 34 33
7 7 6 7 8 10 13 16 18 19 21 27 28 29 31 31 29 27 27 33 35 32 32 35 35 36 38 39 39 40 40 39 39 38 37 38 40 40 41 39 36 33 32 29 25 22 21 21 22 23 23 23 24 25 26 28 30 28 23 24 27 26 23 24 28 28 28 31 33 35 35 36 39 42 41 41 41 38 39 40 38 36 35 34 33 30
7 6 6 7 8 9 11 13 16 18 19 25 28 28 30 30 28 27 28 33 35 33 34 36 37 38 39 40 39 39 41 39 38 37 36 36 38 39 40 39 36 32 30 29 27 24 22 22 22 22 23 23 24 24 26 27 30 28 23 22 25 26 24 24 25 26 27 30 32 32 33 35 40 43 42 41 39 38 40 40 38 38 34 32 32 30
7 6 5 6 8 8 10 11 13 16 18 21 26 28 28 27 26 26 30 36 38 37 37 37 38 37 38 39 38 38 39 40 39 38 37 35 35 38 39 38 36 33 30 29 28 26 24 23 23 22 23 24 23 24 26 27 29 29 24 21 22 24 24 24 25 26 28 30 31 31 31 33 38 41 41 40 38 39 39 39 40 39 36 34 34 34
8 8 6 6 7 8 8 10 11 14 16 18 22 25 27 27 25 25 30 34 37 39 38 38 40 38 35 38 40 39 38 38 39 38 38 37 36 37 37 35 35 34 32 31 31 29 27 25 24 25 25 24 24 24 26 27 28 29 25 20 21 23 24 24 26 26 28 29 30 31 31 33 36 37 38 37 37 40 40 40 43 41 39 38 35 33
8 9 7 5 6 7 8 9 10 12 14 17 20 21 24 27 27 26 27 30 36 38 36 38 40 39 36 36 39 39 37 36 37 36 37 38 38 37 37 34 33 33 33 32 33 33 33 31 28 28 27 26 26 25 25 26 28 29 27 22 20 22 23 24 24 25 27 29 28 29 31 35 37 36 35 34 35 41 42 40 41 41 40 35 32 32
9 8 7 6 6 7 7 8 9 10 13 16 18 20 22 25 28 28 26 29 34 37 37 37 37 39 38 36 35 35 35 35 37 37 36 36 36 35 35 34 32 33 33 33 35 36 36 35 32 30 30 30 29 28 28 28 28 29 28 24 21 22 24 23 23 24 25 27 28 27 29 33 36 37 38 35 33 36 39 40 39 39 41 35 29 33
11 8 7 7 7 6 7 7 8 10 11 13 17 21 23 24 27 27 26 29 33 37 39 37 35 38 38 36 35 34 33 34 34 36 36 35 35 36 38 38 34 32 33 33 35 37 37 37 34 32 32 32 31 31 33 32 30 30 30 28 23 21 23 23 22 22 23 25 25 25 27 30 33 36 40 41 37 34 34 36 37 37 40 36 30 31
12 10 8 8 7 7 7 7 8 10 11 12 16 21 24 24 25 27 27 28 31 35 40 39 36 36 37 36 36 34 32 32 33 34 35 37 37 36 40 45 42 37 33 32 34 37 37 37 36 34 33 34 35 36 38 37 35 33 33 32 26 21 21 21 21 22 22 23 24 24 25 26 28 33 38 42 40 36 32 32 34 36 35 36 36 35
13 12 10 8 8 7 7 7 7 8 9 12 15 20 23 23 24 27 28 28 29 31 34 35 35 36 35 34 33 34 32 32 35 35 36 39 37 33 35 43 46 44 39 33 32 35 36 37 36 35 35 35 38 39 40 41 40 37 36 35 30 23 22 23 21 22 22 23 23 22 23 24 26 30 33 36 38 37 33 30 33 36 35 37 40 39
13 13 12 9 8 8 6 6 7 7 9 11 14 20 23 22 25 29 28 28 29 29 29 30 32 35 36 34 32 33 33 34 36 37 36 36 36 35 34 36 37 42 44 38 32 33 34 36 36 35 34 35 38 39 39 39 40 40 39 39 34 26 25 26 25 24 23 23 24 23 25 27 29 32 32 32 35 36 34 31 34 37 37 37 37 40
13 12 12 11 9 8 7 6 6 7 9 9 12 20 23 24 29 32 29 28 29 29 30 29 30 32 33 33 32 33 35 36 35 34 33 31 34 36 34 34 32 35 43 40 31 32 34 34 36 35 35 36 36 37 36 37 38 38 39 40 37 29 27 29 28 27 26 26 27 27 29 31 31 33 34 33 34 34 33 34 36 36 36 35 36 43
14 11 11 12 10 8 7 6 6 6 7 9 11 19 25 26 31 33 30 28 29 29 29 29 30 31 31 32 32 32 33 35 34 33 32 30 33 36 35 38 37 34 42 41 30 30 33 33 35 36 36 37 36 36 35 35 36 37 38 40 39 33 29 30 30 29 29 28 29 30 31 33 33 34 35 34 32 32 34 37 37 37 38 37 40 46
16 12 10 12 11 9 7 5 5 6 7 8 8 17 26 26 27 30 29 29 30 29 28 28 30 31 32 32 31 31 30 33 35 32 32 32 33 35 35 38 39 34 38 39 31 30 32 33 35 35 35 37 36 35 33 33 34 36 37 38 36 33 30 31 32 31 31 30 31 32 32 32 33 33 35 35 32 32 37 41 41 40 42 45 46 47
15 13 10 12 11 9 7 5 5 6 8 8 8 15 22 19 19 25 27 29 29 28 27 28 29 28 30 31 31 32 31 32 34 31 32 33 33 35 34 34 35 31 30 32 30 31 33 33 35 35 36 37 36 35 33 32 33 34 37 37 32 28 28 31 32 32 32 32 33 34 33 32 33 33 35 36 33 33 36 42 43 42 42 46 50 50
15 14 12 12 13 11 8 7 6 5 7 9 10 12 15 15 18 24 27 29 28 28 27 26 27 27 28 28 28 31 32 32 34 34 33 33 33 34 31 29 31 28 27 29 30 31 33 34 35 35 36 36 37 36 34 34 33 31 33 35 31 26 27 29 32 34 34 35 36 36 35 34 33 33 36 36 34 33 36 40 41 42 42 44 48 51
16 18 17 13 12 14 11 9 8 6 6 10 10 9 10 15 21 25 27 28 28 29 27 25 24 24 26 27 25 29 30 29 31 34 33 33 34 32 28 27 28 29 29 30 29 31 32 33 35 35 36 37 37 37 35 35 34 30 30 33 30 26 26 28 30 32 34 35 35 35 35 35 34 34 36 37 36 35 36 38 40 42 44 45 47 52
15 18 21 17 13 14 13 11 11 8 6 8 9 9 11 15 21 25 25 26 28 29 27 26 25 23 24 27 27 29 30 27 27 31 32 30 30 29 28 29 30 32 35 32 29 31 32 32 35 36 37 38 38 38 36 35 34 31 30 30 29 27 27 27 27 28 30 31 32 33 33 33 33 34 36 36 38 38 37 37 39 42 45 47 50 54
17 17 20 21 17 15 14 12 11 10 7 6 7 12 14 13 17 23 24 25 28 28 27 27 27 24 24 26 28 31 32 29 27 29 29 25 24 25 27 31 30 29 33 32 28 30 31 32 34 36 37 37 38 38 36 35 35 32 31 30 30 29 28 28 28 27 27 29 30 31 32 33 34 35 37 36 38 39 38 38 39 41 43 48 53 54
19 19 18 21 22 16 13 13 10 9 9 6 5 10 15 15 16 21 24 24 25 26 27 28 28 27 25 24 25 28 32 31 28 28 28 24 24 24 25 30 29 25 27 30 28 28 31 32 33 35 37 37 38 38 36 36 35 33 32 31 30 31 30 30 28 26 26 27 28 30 32 35 36 37 37 37 37 38 40 40 41 43 45 48 52 52
17 20 18 21 23 17 11 12 11 9 9 9 6 6 10 15 18 20 22 21 21 24 27 27 27 27 26 24 24 25 29 31 29 28 28 26 27 26 25 28 30 26 25 28 28 28 29 31 31 33 35 36 37 38 37 37 36 34 33 33 33 33 34 33 30 26 26 27 29 32 35 37 38 37 36 37 37 39 42 43 44 46 47 49 50 50
15 19 19 19 21 19 14 11 11 10 9 10 10 7 6 10 17 21 20 19 21 25 27 27 26 26 24 24 25 26 29 30 29 29 30 29 28 27 26 27 28 28 26 26 28 28 28 30 31 32 34 35 36 37 37 37 37 35 34 34 35 36 36 36 33 29 28 28 30 32 35 36 37 37 37 38 39 42 44 45 45 45 45 46 47 47
16 18 20 19 19 21 19 14 13 12 10 10 11 10 7 7 12 17 18 20 24 26 27 28 25 24 25 25 25 28 30 30 30 30 31 30 28 26 26 25 26 28 27 26 28 28 29 31 31 31 32 34 35 37 37 38 38 37 35 35 36 37 37 36 36 35 32 31 31 32 33 35 37 39 40 42 43 45 47 48 49 46 43 44 44 42
18 17 21 25 23 23 22 18 15 13 10 9 9 9 9 7 9 12 15 21 24 24 26 27 25 24 26 27 26 28 30 32 32 31 30 29 27 25 26 25 25 26 27 28 29 28 29 31 31 30 32 34 36 37 38 38 38 37 35 33 35 37 37 36 38 40 38 35 34 34 35 37 40 42 45 46 47 48 49 51 52 49 46 46 44 40
22 21 21 24 25 23 20 17 15 13 12 10 8 8 10 10 10 10 11 17 21 23 25 25 23 25 26 27 26 26 28 31 30 29 27 25 24 22 22 23 24 26 30 29 28 29 29 30 32 32 33 37 38 37 37 38 38 37 35 33 32 34 36 38 38 40 41 42 40 39 39 40 43 45 46 47 49 51 52 50 49 49 49 46 42 40
22 23 21 22 23 21 20 20 19 17 16 15 11 8 9 11 13 13 12 13 15 19 22 21 21 25 26 27 27 24 27 30 26 23 23 24 24 22 22 25 27 28 30 29 27 29 29 30 33 34 35 37 37 37 39 39 38 37 35 33 32 32 34 37 38 40 42 45 46 44 42 41 43 45 46 48 49 51 52 49 47 51 52 46 42 43
22 22 21 21 22 21 22 25 25 22 21 21 19 14 11 10 13 15 15 13 13 16 17 16 19 23 21 24 28 26 25 27 24 21 20 22 24 23 22 26 29 28 27 27 28 28 29 31 33 35 37 38 38 39 40 39 37 37 35 32 31 32 33 34 38 41 42 45 48 48 45 43 44 46 48 49 49 51 51 48 49 54 55 50 47 46
24 25 21 20 22 21 20 23 27 28 27 26 26 23 18 14 12 13 15 15 14 16 16 16 20 21 16 16 23 27 27 27 25 22 20 20 23 21 19 23 29 29 28 28 29 29 30 32 34 36 38 39 39 40 41 40 38 37 36 33 31 32 32 33 37 40 42 45 48 48 47 46 48 49 51 52 52 53 52 49 50 55 55 51 50 50
23 26 24 21 22 23 20 19 22 27 30 31 29 27 26 24 18 15 14 15 15 16 16 17 20 22 20 16 16 21 27 28 27 25 21 18 20 20 18 22 28 31 29 28 28 28 29 31 33 35 37 39 39 40 40 39 36 35 36 34 31 31 32 33 36 39 41 44 47 47 47 48 52 54 54 55 54 54 56 53 51 53 54 53 52 53
22 25 26 24 25 26 25 22 20 22 27 30 30 29 29 29 27 22 18 16 16 16 15 15 17 18 21 22 19 16 19 24 27 29 25 20 19 18 19 22 24 26 28 28 27 28 27 30 33 34 35 36 37 38 38 36 33 34 34 32 30 31 33 35 36 37 39 42 45 47 47 49 53 55 54 55 55 54 56 56 54 54 56 58 58 57
24 26 27 30 32 30 29 28 24 23 27 31 30 28 28 30 30 28 24 20 18 17 15 14 14 13 15 20 22 18 16 18 19 23 24 21 18 17 18 19 18 21 25 25 24 25 26 29 30 30 32 33 32 34 36 34 31 32 33 31 30 32 35 36 36 36 39 41 43 47 48 49 53 55 54 54 54 53 54 57 59 58 58 59 58 56
25 28 30 32 35 33 31 30 29 31 35 33 26 21 22 28 31 29 27 25 23 21 20 16 12 12 12 15 18 17 16 16 15 15 17 18 18 17 18 17 16 18 21 22 24 25 26 28 27 26 30 31 29 30 33 33 30 29 31 31 30 31 35 37 36 35 37 41 42 45 47 49 52 54 54 54 54 56 57 59 60 58 55 55 54 54
24 30 33 34 34 33 32 32 36 41 39 30 24 22 21 25 29 28 26 25 24 25 26 23 20 19 17 14 14 14 14 15 15 13 12 14 16 16 15 15 14 16 19 22 25 25 25 27 27 27 31 33 31 31 35 36 33 30 31 31 28 30 34 35 35 34 36 38 40 42 46 49 51 53 55 56 56 57 58 58 57 56 55 56 56 56
25 30 37 37 35 33 34 39 45 44 34 25 26 28 26 25 26 27 27 24 22 24 25 26 27 27 24 19 16 15 14 13 15 14 11 11 12 12 13 14 13 13 17 22 25 25 24 28 30 31 33 34 35 36 36 37 35 32 31 30 29 31 33 32 34 34 34 36 38 40 45 50 53 55 56 57 57 56 55 55 57 58 58 59 58 57
31 33 40 42 39 38 39 43 46 40 31 28 28 28 29 31 31 32 33 28 25 25 24 24 26 27 27 24 21 21 21 17 15 15 12 10 9 10 11 12 12 13 16 22 26 25 26 29 32 32 34 35 37 36 35 36 37 35 33 32 31 31 31 32 34 35 35 37 38 40 45 51 55 56 56 55 55 56 57 58 60 60 60 60 59 57
37 40 45 45 43 43 41 40 41 39 33 33 37 37 36 37 38 39 40 34 29 27 25 26 26 26 26 26 26 26 25 21 18 16 14 12 11 10 10 12 13 12 14 23 28 27 26 29 32 34 34 35 36 36 37 39 40 38 35 33 32 31 31 33 35 36 36 36 37 40 46 50 53 54 54 54 56 58 60 61 61 61 61 61 60 56
35 41 47 46 44 43 41 40 43 45 39 38 45 47 42 40 40 41 40 35 30 27 27 28 29 28 28 27 28 28 25 21 18 17 16 16 15 14 13 13 13 12 15 22 28 28 26 28 32 34 33 35 37 38 37 39 40 39 37 34 32 31 33 35 37 37 37 38 40 42 44 45 47 49 53 55 57 60 62 63 62 61 61 61 59 56
31 35 42 46 46 46 45 45 46 47 48 48 47 44 41 39 39 41 40 35 31 30 32 32 33 34 33 29 28 28 25 21 17 15 16 19 19 18 16 14 13 15 19 23 26 29 28 28 32 34 34 36 38 36 34 38 40 40 37 34 33 33 35 37 38 38 39 42 44 43 40 41 43 47 52 56 60 62 64 64 64 62 61 60 58 56
31 33 37 41 45 48 49 48 45 44 49 51 46 42 42 41 42 45 44 40 39 37 34 33 34 37 36 32 29 27 23 19 16 16 17 20 20 17 16 15 13 13 17 21 25 30 31 30 33 36 36 37 38 35 35 39 41 39 37 35 36 39 40 41 41 40 40 42 43 41 39 40 43 48 53 58 62 63 63 63 64 64 62 58 56 55
32 33 35 37 38 41 46 47 44 44 48 47 43 43 46 47 48 49 45 43 45 42 35 33 32 31 31 32 33 31 24 20 18 18 21 25 24 18 17 17 15 13 15 21 26 31 34 35 36 36 36 37 38 37 39 42 42 41 39 38 41 45 45 44 42 40 39 41 42 42 42 44 47 51 56 60 62 62 62 62 63 63 61 57 55 53
33 31 34 37 35 33 37 40 41 46 50 48 43 43 46 49 51 52 49 47 44 41 38 37 34 30 28 28 30 31 30 29 28 24 24 30 31 25 22 20 17 16 19 23 28 32 35 35 36 37 38 38 39 40 44 45 43 41 41 44 48 49 47 44 41 39 40 42 45 46 48 50 51 54 59 61 61 61 62 62 62 62 61 57 53 52
31 31 32 35 35 34 34 36 39 45 50 51 48 47 49 50 49 48 48 46 42 40 40 39 36 35 34 32 30 28 27 31 33 28 28 32 32 27 25 24 21 22 24 26 29 32 35 37 38 39 40 39 40 42 46 47 44 42 43 46 47 45 42 41 39 40 42 45 49 52 54 54 53 56 61 62 61 62 65 64 62 62 60 55 52 50
33 33 32 32 34 33 32 35 40 45 50 52 51 50 50 48 43 41 42 44 42 41 41 40 39 38 37 36 35 31 29 34 38 33 31 33 29 24 25 26 26 27 27 28 30 33 36 38 38 37 38 39 41 44 45 43 40 40 40 40 39 38 39 39 40 42 45 48 52 57 58 57 56 59 62 62 62 64 66 64 62 61 58 53 50 47
44 44 41 38 37 37 38 42 45 48 51 49 46 47 49 45 41 41 42 42 40 39 40 42 41 40 39 38 39 39 38 40 42 39 36 34 30 27 27 28 29 30 30 31 33 34 36 37 37 38 39 41 42 41 39 36 36 36 37 37 37 38 39 40 43 48 51 52 53 57 59 60 60 62 63 63 64 64 63 61 61 59 56 53 50 48
59 58 54 49 50 51 51 51 50 50 52 50 47 49 51 46 41 40 40 40 40 39 41 44 44 45 45 45 47 52 52 48 47 47 44 39 33 30 30 31 32 34 34 35 36 35 36 37 38 38 39 39 37 36 36 36 36 36 37 38 39 40 41 45 51 54 55 53 54 57 60 62 63 63 63 63 63 62 60 60 59 58 55 53 51 49
66 62 57 55 58 59 58 58 55 53 54 53 50 49 47 42 40 40 41 44 45 44 46 51 54 54 54 53 55 60 61 59 56 53 48 42 36 35 36 36 35 35 37 38 37 36 36 37 38 37 37 38 37 37 38 39 38 38 39 41 42 44 47 51 55 55 54 55 58 62 63 64 65 65 64 63 62 60 59 58 57 55 53 53 51 49
72 65 60 61 63 64 67 68 63 57 55 53 50 46 42 42 44 45 44 47 50 51 53 57 61 63 64 66 66 64 62 63 61 57 53 48 43 44 47 47 42 40 41 42 41 41 40 40 42 41 41 41 40 38 39 42 42 41 43 44 46 49 51 53 54 54 54 58 63 66 65 66 66 65 64 63 61 58 56 55 54 53 53 53 51 48
72 68 66 68 69 69 71 70 64 59 56 51 48 45 42 42 43 41 40 43 50 55 58 59 62 67 69 70 70 67 63 63 63 59 57 54 49 48 50 51 48 46 47 47 47 46 44 43 43 41 42 44 45 44 45 46 46 46 47 48 49 50 51 52 53 56 59 63 66 67 66 67 66 64 63 62 59 56 53 52 51 52 52 52 51 50
73 70 69 70 72 73 72 67 64 62 58 52 50 49 46 43 41 38 38 43 49 57 63 62 62 65 67 68 69 68 65 64 64 61 57 57 56 53 51 51 49 49 49 49 48 46 45 45 44 43 45 49 50 51 52 53 53 53 52 51 50 51 51 52 55 60 64 64 63 64 65 66 65 63 61 58 55 52 51 50 50 50 51 52 53 53
81 78 73 71 76 80 77 70 66 64 58 55 55 54 51 48 46 43 43 48 55 62 66 63 58 58 62 63 64 63 60 59 60 58 55 56 58 58 56 55 54 53 52 52 52 51 49 49 47 46 48 51 51 52 55 56 57 57 56 54 53 53 53 55 59 62 63 61 59 61 62 63 61 60 57 53 50 49 48 48 49 49 51 53 55 55